EW6754 Weather Reports


Display with metric or nautical units.
time (UTC)temp
F
wind
direction
speed
MPH
gust
MPH
rain 1hr
in
rain 24hr
in
rain mn
in
humidity
%
barometer
mb
20260509164509 89 113 0.0 9.0 0.00 0.00 0.00 51 1014.8
20260509163016 89 169 0.0 12.0 0.00 0.00 0.00 51 1014.9
20260509161507 89 95 0.0 8.0 0.00 0.00 0.00 50 1015.0
20260509160004 88 63 0.0 11.0 0.00 0.00 0.00 50 1015.1
20260509154503 88 94 0.0 12.0 0.00 0.00 0.00 51 1015.3
20260509153003 88 164 0.0 12.0 0.00 0.00 0.00 53 1015.5
20260509151601 88 103 0.0 4.0 0.00 0.00 0.00 55 1015.5
20260509150058 87 100 0.0 0.0 0.00 0.00 0.00 57 1015.7
20260509144610 86 98 0.0 9.0 0.00 0.00 0.00 56 1015.7
20260509143055 85 79 0.0 0.0 0.00 0.00 0.00 62 1015.8
20260509141552 86 172 0.0 6.0 0.00 0.00 0.00 62 1015.8
20260509134551 85 141 0.0 0.0 0.00 0.00 0.00 65 1015.7
20260509133046 85 115 0.0 0.0 0.00 0.00 0.00 64 1015.7
20260509131553 84 86 0.0 6.0 0.00 0.00 0.00 67 1015.7
20260509130044 83 66 0.0 10.0 0.00 0.00 0.00 68 1015.7
20260509124543 82 111 0.0 0.0 0.00 0.00 0.00 73 1015.7
20260509123036 82 75 0.0 0.0 0.00 0.00 0.00 72 1015.5
20260509121548 82 74 0.0 0.0 0.00 0.00 0.00 71 1015.5
20260509120036 82 117 0.0 0.0 0.00 0.00 0.00 71 1015.4
20260509114533 81 149 0.0 0.0 0.00 0.00 0.00 73 1015.2
20260509113027 80 215 0.0 0.0 0.00 0.00 0.00 78 1015.2
20260509111527 80 230 0.0 0.0 0.00 0.00 0.00 77 1015.2
20260509110022 78 230 0.0 0.0 0.00 0.00 0.00 81 1015.0
20260509104522 75 230 0.0 0.0 0.00 0.00 0.00 81 1015.0
20260509103021 73 230 0.0 0.0 0.00 0.00 0.00 76 1014.9
20260509101523 72 230 0.0 0.0 0.00 0.00 0.00 75 1014.7
20260509100024 72 233 0.0 0.0 0.00 0.00 0.00 75 1014.5
20260509094520 72 234 0.0 0.0 0.00 0.00 0.00 75 1014.4
20260509093019 73 234 0.0 0.0 0.00 0.00 0.00 76 1014.2
20260509091520 73 233 0.0 0.0 0.00 0.00 0.00 76 1014.1
20260509090019 73 233 0.0 0.0 0.00 0.00 0.00 76 1014.0
20260509084518 73 233 0.0 0.0 0.00 0.00 0.00 74 1013.9
20260509083016 72 234 0.0 0.0 0.00 0.00 0.00 75 1013.8
20260509081516 73 201 0.0 0.0 0.00 0.00 0.00 77 1013.7
20260509080010 73 136 0.0 0.0 0.00 0.00 0.00 77 1013.8
20260509074509 74 229 0.0 0.0 0.00 0.00 0.00 79 1013.8
20260509073006 74 161 0.0 0.0 0.00 0.00 0.00 80 1013.9
20260509071504 74 324 0.0 0.0 0.00 0.00 0.00 79 1013.9
20260509070001 74 323 0.0 0.0 0.00 0.00 0.00 79 1013.8
20260509064602 75 314 0.0 0.0 0.00 0.00 0.00 81 1013.8
20260509063103 75 315 0.0 0.0 0.00 0.00 0.00 81 1013.8
20260509061555 75 305 0.0 0.0 0.00 0.00 0.00 81 1013.9
20260509060059 76 207 0.0 0.0 0.00 0.00 0.00 81 1014.0
20260509054555 76 205 0.0 0.0 0.00 0.00 0.00 81 1014.1
20260509053119 76 205 0.0 0.0 0.00 0.00 0.00 81 1014.3
20260509051547 76 204 0.0 0.0 0.00 0.00 0.00 81 1014.4
20260509050046 76 205 0.0 0.0 0.00 0.00 0.00 81 1014.5
20260509044543 76 138 0.0 0.0 0.00 0.00 0.00 81 1014.6
20260509043100 77 117 0.0 0.0 0.00 0.00 0.00 82 1014.7
20260509041551 77 92 0.0 0.0 0.00 0.00 0.00 82 1014.9
20260509040034 77 94 0.0 0.0 0.00 0.00 0.00 82 1015.1
20260509034539 77 163 0.0 0.0 0.00 0.00 0.00 82 1015.1
20260509033032 77 150 0.0 0.0 0.00 0.00 0.00 82 1015.1
20260509031531 77 174 0.0 0.0 0.00 0.00 0.00 81 1015.1
20260509030031 77 102 0.0 0.0 0.00 0.00 0.00 81 1015.3
20260509024530 77 233 0.0 0.0 0.00 0.00 0.00 81 1015.4
20260509023028 77 182 0.0 0.0 0.00 0.00 0.00 81 1015.3
20260509021527 78 155 0.0 0.0 0.00 0.00 0.00 81 1015.2
20260509020026 78 220 0.0 0.0 0.00 0.00 0.00 81 1015.1
20260509014525 78 224 0.0 0.0 0.00 0.00 0.00 81 1015.0
20260509013025 79 199 0.0 0.0 0.00 0.00 0.00 79 1014.7
20260509011529 79 172 0.0 0.0 0.00 0.00 0.00 78 1014.7
20260509010038 80 105 0.0 0.0 0.00 0.00 0.00 77 1014.6
20260509004527 80 111 0.0 0.0 0.00 0.00 0.00 77 1014.4
20260509003022 80 122 0.0 0.0 0.00 0.00 0.00 76 1014.3
20260509001521 80 102 0.0 0.0 0.00 0.00 0.00 75 1014.0
20260509000020 81 103 0.0 0.0 0.00 0.00 0.00 74 1013.8
20260508234523 81 127 0.0 0.0 0.00 0.00 0.00 75 1013.6
20260508233017 81 107 0.0 0.0 0.00 0.00 0.00 75 1013.4
20260508231515 81 120 0.0 0.0 0.00 0.00 0.00 75 1013.2
20260508230023 82 113 0.0 0.0 0.00 0.00 0.00 74 1013.1
20260508224510 82 106 0.0 0.0 0.00 0.00 0.00 74 1013.0
20260508223005 83 132 0.0 0.0 0.00 0.00 0.00 72 1012.7
20260508221501 84 113 0.0 0.0 0.00 0.00 0.00 70 1012.6
20260508220059 84 150 0.0 0.0 0.00 0.00 0.00 68 1012.4
20260508214602 85 106 0.0 0.0 0.00 0.00 0.00 65 1012.3
20260508213053 85 94 0.0 0.0 0.00 0.00 0.00 64 1012.2
20260508211553 85 111 0.0 0.0 0.00 0.00 0.00 62 1011.9
20260508210052 86 103 0.0 0.0 0.00 0.00 0.00 61 1011.8
20260508204551 86 102 0.0 6.0 0.00 0.00 0.00 58 1011.9
20260508203051 87 74 0.0 5.0 0.00 0.00 0.00 57 1011.9
20260508201551 88 98 0.0 2.0 0.00 0.00 0.00 55 1011.8
20260508200056 89 107 0.0 0.0 0.00 0.00 0.00 53 1011.9
20260508194547 89 51 0.0 8.0 0.00 0.00 0.00 50 1012.0
20260508193050 89 122 0.0 0.0 0.00 0.00 0.00 52 1012.1
20260508191553 90 145 0.0 9.0 0.00 0.00 0.00 50 1012.2
20260508190045 90 90 3.0 21.0 0.00 0.00 0.00 51 1012.0
20260508184542 90 101 0.0 8.0 0.00 0.00 0.00 49 1012.4
20260508183038 90 132 0.0 4.0 0.00 0.00 0.00 47 1012.5
20260508181536 90 82 0.0 5.0 0.00 0.00 0.00 50 1012.8
20260508180036 90 82 0.0 0.0 0.00 0.00 0.00 50 1012.8
20260508174538 90 165 0.0 0.0 0.00 0.00 0.00 51 1012.8
20260508173030 90 138 0.0 4.0 0.00 0.00 0.00 51 1013.0
20260508171528 89 91 0.0 2.0 0.00 0.00 0.00 53 1013.2
20260508170027 89 148 0.0 8.0 0.00 0.00 0.00 54 1013.3